Theta_e
306 307 307 308 308 307 306 301 295 311 311 297 299 294 295 297 299 302 300 303 300 299 300 299 298 297 301 304 305 300 304 301 296 297 303 305 304 300 300 294 292 295 294 293
306 307 307 308 308 307 303 297 297 310 308 291 295 299 297 299 299 300 300 299 302 302 299 296 299 301 304 304 303 301 304 299 292 293 299 303 299 301 302 301 301 294 291 293
306 307 307 308 307 307 304 299 292 301 301 303 295 293 294 295 302 301 301 300 302 300 299 302 298 298 301 304 304 306 308 302 297 293 295 300 297 299 302 301 295 295 295 296
307 307 307 307 307 307 305 298 296 299 292 296 295 295 297 293 291 300 302 299 300 297 296 297 298 301 300 304 305 304 304 297 300 297 298 297 298 298 299 298 298 294 296 296
307 307 307 307 307 307 304 295 295 299 297 298 297 296 295 292 294 295 295 297 299 300 296 298 296 299 300 300 304 303 304 297 299 295 299 298 296 298 298 298 298 296 298 298
307 307 307 307 308 308 304 304 306 295 295 296 294 294 294 291 291 298 298 299 299 298 297 300 302 303 303 304 302 301 301 299 296 291 296 295 291 295 297 298 300 299 295 300
306 307 307 307 308 308 310 307 302 292 290 295 293 295 296 295 293 289 298 301 299 298 303 303 302 302 301 302 302 305 300 299 296 290 292 284 295 301 300 298 300 302 302 302
304 306 306 307 308 308 306 304 298 292 289 295 294 296 296 297 295 293 295 297 300 304 299 293 291 292 294 295 298 299 303 299 293 290 289 292 294 297 298 297 297 302 302 303
302 304 306 307 307 307 306 305 305 298 294 294 295 294 298 295 293 291 294 301 303 301 296 292 287 288 291 289 290 297 299 301 295 291 284 283 296 301 304 303 293 303 304 303
302 303 304 306 306 307 307 305 307 302 293 298 298 294 295 299 297 294 292 295 297 300 296 292 289 290 295 290 289 289 292 293 290 289 287 291 299 302 304 292 295 304 305 304
302 302 303 304 306 306 306 304 307 302 295 298 301 300 295 296 299 294 297 295 298 297 293 294 294 294 295 294 294 292 290 290 290 290 287 284 302 302 295 303 306 305 304 303
302 303 303 304 305 306 306 301 309 307 299 298 306 305 305 302 303 300 300 298 297 300 297 298 298 295 295 292 289 299 291 296 293 295 294 304 306 305 308 309 305 304 303 303
302 303 304 304 304 306 306 305 307 303 298 298 299 300 305 308 308 308 298 302 302 302 304 299 299 291 298 291 293 294 298 301 298 298 301 302 305 305 305 304 303 304 304 302
303 303 304 304 304 305 306 305 307 302 300 292 295 306 304 308 309 307 308 305 308 307 304 301 299 295 296 293 294 296 298 301 297 295 300 302 303 304 303 301 301 302 301 300
303 303 304 304 304 305 306 307 308 306 297 290 295 300 303 306 307 305 307 305 305 302 298 299 295 299 296 297 296 294 300 298 293 292 302 303 303 305 305 303 301 302 300 297
303 304 303 304 304 304 303 298 308 310 305 296 290 298 297 303 304 304 301 301 304 302 299 298 299 299 297 292 291 296 300 304 306 300 306 305 308 306 306 303 302 302 301 297
303 303 304 304 304 303 297 293 299 304 305 296 291 293 299 301 301 302 301 302 301 300 300 297 297 297 297 293 290 297 300 302 304 305 306 304 305 303 305 303 302 302 299 298
304 305 304 303 303 303 300 305 304 306 299 300 291 291 293 300 293 293 301 295 297 297 297 297 295 297 296 291 297 299 301 302 304 305 307 307 306 305 303 303 302 298 297 297
304 303 302 302 299 296 301 307 306 306 298 292 293 290 287 299 294 295 295 298 292 296 290 292 293 292 290 295 296 298 300 301 301 305 305 305 303 302 302 301 300 297 296 297
303 301 295 290 297 306 306 300 295 295 295 294 291 297 290 296 293 292 293 296 291 289 292 296 292 291 297 298 300 303 303 304 305 302 300 301 300 300 300 299 299 298 297 298
299 293 290 298 303 298 294 290 290 291 288 291 292 294 291 296 290 290 294 289 293 287 290 290 290 291 296 300 300 304 305 305 305 304 304 304 302 300 298 297 297 296 296 295
297 297 299 298 294 291 288 288 289 288 288 292 290 293 293 296 300 293 294 290 292 284 294 289 287 295 300 301 301 304 305 305 303 305 302 302 300 299 298 296 295 295 295 295
298 293 291 292 290 284 285 283 287 287 292 293 293 290 294 297 299 294 294 286 287 297 289 289 294 299 300 302 303 302 302 303 303 302 301 300 298 296 295 294 294 295 294 294
291 288 284 287 286 288 290 291 292 295 296 294 293 293 293 296 292 291 285 291 292 286 285 288 296 299 300 301 302 302 301 301 300 299 298 296 295 295 295 295 295 294 293 293
289 288 285 287 290 292 292 293 295 297 297 295 294 294 293 289 287 289 289 286 284 286 288 295 300 300 301 301 299 296 297 297 297 297 296 296 296 295 294 295 295 294 293 293
292 290 288 290 289 291 294 295 293 297 297 300 297 290 287 286 289 285 283 283 284 290 296 297 295 294 295 298 301 300 300 298 298 297 297 297 296 295 295 295 294 294 293 293
290 289 290 289 290 290 293 299 297 298 295 290 291 286 287 292 287 284 289 288 293 293 296 294 296 294 294 299 299 298 298 297 297 296 296 296 297 296 294 292 293 293 293 293
Wind_Speed
19 20 19 19 20 15 9 4 6 8 9 7 7 11 14 13 15 12 21 19 16 11 10 13 18 14 8 5 5 18 19 10 11 18 6 4 10 11 13 8 12 8 10 7
19 18 18 18 18 13 4 4 9 2 7 7 9 13 14 19 17 17 14 15 15 11 12 10 1 7 3 5 6 4 11 10 11 6 10 8 13 12 11 10 9 11 10 3
19 18 18 17 17 15 2 4 6 4 5 9 11 8 9 13 16 20 24 12 3 8 14 10 14 9 5 7 8 9 5 9 17 10 1 6 17 13 15 14 10 12 13 8
20 18 18 17 17 17 3 3 6 5 7 7 8 7 11 12 4 9 6 7 14 6 12 11 11 16 16 17 12 9 7 10 10 2 1 1 5 8 12 14 14 14 11 5
19 17 18 19 19 13 4 4 4 6 13 15 14 8 9 10 7 5 9 11 11 12 6 1 10 11 11 9 11 11 7 7 9 11 12 10 11 10 12 13 11 8 11 15
20 17 17 17 19 12 4 2 5 2 9 10 11 7 4 1 7 5 6 18 10 11 5 5 8 6 5 2 6 7 7 7 7 10 8 7 12 15 16 16 15 14 15 11
23 22 18 17 18 17 7 4 3 1 7 13 9 14 13 5 3 3 5 5 9 6 5 6 6 5 3 3 5 0 7 10 6 5 3 10 3 2 5 10 13 14 11 5
23 23 23 19 16 18 4 1 1 2 4 10 12 13 12 2 5 4 4 8 6 7 5 3 6 6 6 5 2 4 3 7 4 5 8 7 9 5 4 8 7 4 7 6
23 23 22 20 16 15 6 3 4 4 5 3 4 12 12 4 3 3 3 6 3 2 3 3 5 6 6 7 4 3 6 4 6 5 4 5 8 4 1 1 6 7 8 9
23 23 24 24 18 16 8 4 4 4 3 7 6 4 7 6 2 4 1 3 1 6 4 4 3 4 2 8 8 11 8 7 9 6 5 5 4 3 3 9 5 8 7 8
23 22 22 23 20 17 8 5 5 4 2 9 13 2 4 5 5 3 6 5 7 5 4 2 2 2 3 2 10 10 8 8 7 5 8 6 5 5 5 9 11 10 9 8
22 23 21 22 21 18 11 4 2 2 4 5 10 9 8 8 10 6 1 5 1 4 1 1 1 2 3 2 5 3 5 4 5 7 2 7 4 9 7 7 11 9 9 9
23 23 20 20 19 19 11 6 2 2 3 4 5 4 7 7 7 6 5 1 2 2 5 3 2 3 2 2 3 4 1 3 3 6 8 7 10 12 12 10 11 11 10 8
23 22 20 18 17 18 11 5 1 3 1 3 1 6 2 7 4 6 10 3 2 1 3 2 0 2 2 1 2 2 2 5 4 4 7 9 10 12 14 14 11 10 10 9
23 24 22 16 15 13 8 6 4 2 2 2 4 3 5 9 2 4 7 4 0 2 2 2 1 2 2 2 3 5 7 6 4 3 7 5 13 11 12 14 12 11 11 10
21 24 13 11 11 7 4 3 2 4 2 3 2 2 4 2 5 8 8 4 0 1 2 2 2 4 3 0 3 3 6 7 12 3 5 4 14 13 12 13 12 10 10 11
20 21 13 11 7 3 2 2 2 5 1 2 2 1 2 3 3 2 3 4 3 2 1 2 2 3 3 3 4 3 4 7 8 5 8 12 15 13 14 14 13 11 11 10
21 15 6 5 5 5 5 3 5 2 0 4 1 1 1 2 1 2 2 2 2 3 2 2 2 2 4 5 6 6 4 3 7 11 4 12 14 15 14 13 12 12 10 10
11 4 4 2 2 2 1 7 6 1 1 2 2 1 2 4 2 2 2 2 1 3 1 1 1 3 6 3 4 8 8 7 10 11 13 16 16 15 13 12 11 10 9 8
2 2 1 1 2 6 7 2 1 1 1 1 2 1 2 1 1 1 3 1 1 2 3 4 4 5 9 5 3 2 11 10 14 15 15 15 14 13 12 10 9 9 7 7
1 2 1 2 7 2 2 1 1 1 2 1 0 1 1 2 1 2 2 1 2 3 4 3 3 3 3 5 11 6 11 13 11 9 12 12 13 12 12 12 11 9 8 8
3 2 1 2 1 2 2 2 2 3 0 4 3 3 2 1 2 2 3 2 2 1 2 3 3 3 3 5 12 7 13 13 10 14 14 14 13 13 13 12 11 10 9 8
1 1 1 2 1 2 3 4 3 3 4 4 5 3 1 3 2 2 2 3 1 2 3 4 2 7 4 10 12 14 13 13 15 16 16 16 16 15 14 13 11 10 9 8
2 3 2 3 1 2 2 2 2 4 3 5 5 3 1 2 2 1 4 2 3 4 4 3 6 6 9 11 12 14 14 14 16 16 16 17 16 14 13 12 10 9 9 8
1 2 2 1 2 1 3 3 1 2 5 5 4 3 1 2 2 2 3 3 5 4 2 3 5 7 11 13 14 13 12 12 13 14 15 15 15 13 12 11 10 9 9 9
2 1 3 2 2 3 4 4 3 1 4 3 2 2 1 2 1 3 4 3 5 1 3 3 6 9 9 10 14 15 14 14 13 13 13 14 12 12 12 11 9 9 9 9
3 1 2 2 3 3 4 3 4 5 3 1 2 3 2 2 3 3 3 4 4 3 3 5 9 13 11 11 14 14 14 14 14 14 13 12 12 12 11 11 9 9 9 10
Wind_Direction
327 326 329 328 329 326 308 291 282 86 172 228 210 236 238 268 235 241 251 246 267 267 249 227 187 201 186 11 284 209 210 214 197 199 123 315 254 227 217 213 230 251 279 274
324 325 326 329 329 340 320 275 275 126 180 263 277 290 290 246 247 255 240 249 240 226 222 214 221 200 127 49 336 252 160 218 198 221 196 198 226 219 247 246 268 258 244 219
327 329 327 328 332 338 330 287 291 157 189 268 296 301 288 287 272 245 251 258 295 218 214 216 176 156 111 163 238 263 248 221 221 225 72 221 208 225 214 225 234 242 242 202
327 329 328 329 324 323 263 236 255 323 291 290 277 273 286 284 322 295 279 247 214 159 257 201 183 169 158 191 177 183 205 242 217 195 209 206 258 207 208 228 235 249 265 231
324 327 327 331 326 320 255 285 319 330 297 291 302 298 309 341 345 224 300 282 208 177 202 274 177 164 174 173 177 173 192 206 197 179 205 230 246 239 244 242 247 271 267 267
325 329 326 327 328 334 269 238 285 243 273 294 293 316 322 18 331 222 190 283 158 182 149 74 317 21 6 144 184 174 186 178 201 236 160 252 248 240 244 246 227 236 247 260
335 332 327 323 330 340 268 270 276 246 289 281 311 313 307 319 5 266 336 315 108 68 101 137 181 171 193 131 99 329 194 205 201 236 172 239 56 27 300 279 255 236 234 287
333 332 333 327 329 338 314 117 54 296 261 291 289 329 311 138 105 341 351 18 39 80 129 154 166 170 184 183 182 177 320 207 180 198 221 288 268 176 216 213 205 203 225 138
328 328 329 328 328 334 320 244 173 280 298 46 4 309 303 348 71 335 61 69 110 245 214 167 221 176 138 150 137 217 197 259 218 197 196 232 65 83 180 220 186 131 141 142
322 323 325 327 323 327 328 281 229 266 269 261 6 347 329 341 22 95 38 0 225 245 221 192 193 143 351 163 147 163 169 188 205 190 212 256 67 114 191 227 100 126 129 123
317 319 318 319 323 319 327 280 226 250 261 285 287 222 289 320 298 337 125 208 205 221 224 232 148 166 114 209 124 161 158 174 194 192 209 241 118 159 247 97 109 112 109 101
316 315 313 314 316 313 316 274 352 261 242 293 310 280 271 243 292 318 193 341 11 25 286 259 305 143 187 141 153 161 181 174 170 188 195 88 72 79 79 115 117 108 105 91
311 312 310 309 311 314 301 285 257 263 266 256 247 291 177 228 241 253 286 193 5 150 327 332 53 114 239 168 150 141 153 209 207 167 153 135 122 107 97 103 101 94 100 99
312 310 307 304 307 313 306 296 324 262 250 280 194 358 108 337 286 239 231 298 152 225 265 306 342 149 317 127 35 249 137 172 129 7 125 130 139 129 117 105 101 110 98 93
314 314 302 289 296 300 296 262 230 191 221 301 302 305 339 332 224 159 184 157 81 239 216 231 140 68 245 119 306 241 189 144 162 195 204 198 174 147 153 139 133 123 117 106
321 317 314 295 301 299 291 287 96 216 191 273 297 139 287 37 77 98 89 93 244 172 288 51 103 51 271 252 262 268 229 191 150 222 129 107 122 139 146 130 128 124 118 112
316 317 296 294 284 250 227 251 299 321 191 244 265 164 115 73 44 107 89 49 37 1 37 353 343 154 246 236 227 129 196 190 189 159 135 124 139 137 128 127 120 119 116 112
307 300 314 314 299 259 255 203 235 274 309 261 247 122 203 89 84 97 66 50 33 358 351 181 212 145 234 253 218 172 102 134 165 163 181 144 131 133 130 131 132 130 128 125
314 334 313 292 220 236 317 143 132 53 20 289 267 277 118 149 73 101 49 323 160 129 182 230 268 225 227 246 202 196 183 161 150 134 121 134 137 132 136 137 140 138 133 126
272 288 294 289 327 300 113 73 144 127 91 229 285 327 89 69 154 117 146 245 291 200 194 171 231 244 261 244 200 135 172 153 146 138 142 138 138 138 136 134 132 125 124 127
352 6 340 273 320 37 26 93 209 130 192 198 153 306 127 107 89 95 82 216 178 254 138 240 228 244 163 191 193 170 163 150 155 142 140 143 138 136 129 126 120 121 116 100
3 331 346 303 279 173 222 115 122 233 63 142 175 105 48 112 151 124 200 246 216 282 106 266 241 192 53 177 166 151 152 141 144 133 128 126 124 125 126 125 121 111 106 105
351 1 265 277 92 198 245 168 145 211 169 156 156 115 180 170 209 79 250 237 289 176 226 236 236 78 164 144 123 130 139 128 124 124 122 122 121 123 122 119 115 111 101 91
349 332 329 318 168 245 328 47 42 72 111 146 148 124 213 70 155 118 229 177 263 248 230 197 94 124 130 132 130 131 126 136 128 124 127 128 123 123 120 116 115 109 99 91
320 291 319 258 335 295 313 279 263 109 135 131 125 98 45 121 177 234 278 220 238 221 292 58 87 125 140 126 118 108 107 119 128 134 130 126 127 124 120 117 110 107 105 104
279 257 291 295 267 229 205 140 114 164 140 111 117 101 218 182 217 211 214 243 242 57 359 41 122 120 102 130 140 142 140 139 134 129 129 128 132 129 122 120 111 104 104 104
304 352 351 292 278 303 318 54 118 161 145 145 177 220 192 109 216 217 218 256 34 2 336 132 142 125 138 143 129 129 131 130 126 124 128 125 123 129 129 119 107 99 96 97